Regional Weather Roundup
Issued by NWS Bismarck, ND

Home | Current Version | Previous Version | Text Only | Print | Product List | Glossary On
Versions: 1 2 3 4 5 6 7 8 9 10 11 12 13 14 15 16 17 18 19 20 21 22 23 24 25 26 27 28 29 30 31 32 33 34 35 36 37 38 39 40 41 42 43 44 45 46 47 48 49 50
000
ASUS43 KBIS 010710
RWRBIS

NWR BROADCAST TEXT
NATIONAL WEATHER SERVICE BISMARCK ND
200 AM CDT SAT OCT 01 2016

NOTE: "FAIR" INDICATES FEW OR NO CLOUDS BELOW 12,000 FEET WITH NO
SIGNIFICANT WEATHER AND/OR OBSTRUCTIONS TO VISIBILITY.


CITY           SKY/WX    TMP DP  RH WIND       PRES   REMARKS
WILLISTON      CLEAR     50  46  86 N5        29.99S
MINOT          CLEAR     51  46  83 SE6       30.05R
MINOT AFB      CLEAR     49  46  87 SE8       30.04S
BISMARCK       PTCLDY    60  46  59 SE10      30.06S
DICKINSON      CLEAR     50  44  80 SE10      29.99S
GARRISON         N/A     57  47  69 SE8       30.04S
HETTINGER ARPT CLEAR     51  44  77 E6        30.02S
JAMESTOWN      CLOUDY    55  47  74 SE10      30.13F
BEACH          FAIR      50  48  93 S5        30.02S
CARRINGTON     FAIR      57  48  72 SE12      30.14S
HAZEN          FAIR      54  45  71 NE6       30.05S
LINTON         FAIR      59  48  67 SE17G24   30.09S
MANDAN         FAIR      59  45  58 SE22      30.05F
RUGBY          FAIR      55  50  82 SE12G18   30.09S
STANLEY        FAIR      52  52 100 CALM      30.06R
WATFORD CITY   FAIR      52  48  87 E6        30.00S
$$

CITY           SKY/WX    TMP DP  RH WIND       PRES   REMARKS
GRAND FORKS    PTCLDY    54  48  80 SE6       30.17S
GRAND FORKS AF PTCLDY    53  49  87 S5        30.17S
DEVILS LAKE    CLOUDY    58  49  72 SE13      30.14S
FARGO          PTCLDY    56  48  74 SE10      30.17S
CANDO          FAIR      54  52  94 SE8       30.15S
CAVALIER       FAIR      57  50  77 S7        30.16F
GRAFTON        FAIR      54  52  94 SE6       30.19S
GWINNER        FAIR      52  46  82 SE7       30.16S
LANGDON        PTSUNNY   57  50  77 S13       30.16R
ROLLA            N/A     55  48  76 S8        30.13S
WALHALLA       FAIR      57  54  88 S7        30.16R
$$

CITY           SKY/WX    TMP DP  RH WIND       PRES   REMARKS
ABERDEEN       PTCLDY    56  45  66 SE12      30.13S
MOBRIDGE       CLOUDY    60  44  55 SE15      30.04F
BUFFALO          N/A     59  47  64 CALM      29.95S
RAPID CITY     CLEAR     52  47  83 SE5       30.03S
GLASGOW        CLEAR     55  50  83 VRB5      29.96R
SIDNEY         CLEAR     49  46  90 CALM      29.97S
WOLF POINT     CLEAR     53  50  89 E6        29.97R
GLENDIVE       CLEAR     55  50  83 N3        29.98S
MILES CITY     CLEAR     63  52  67 CALM      29.96F
BAKER          CLEAR     52  46  80 SE5       30.00S
$$

CITY           SKY/WX    TMP DP  RH WIND       PRES   REMARKS
BILLINGS       PTCLDY    64  47  53 CALM      30.01S
GREAT FALLS    CLOUDY    64  42  44 SW12      29.94F
REGINA         CLEAR     48  46  93 SE7       30.02R
ESTEVAN        PTCLDY    50  48  93 E8        30.02S
$$





USA.gov is the U.S. government's official web portal to all federal, state and local government web resources and services.